Location: Newark
(46.2358°N, 112.1211°W)
Time: 00:53:30
(UTC+00:00)

X-37B - Visible Passes

Search period start: 31 July 2021 00:00
Search period end: 10 August 2021 00:00
Orbit: 383 x 392 km, 45.0° (Epoch: 01 July)

Date Brightness Start Highest point End Pass type
(mag) Time Alt. Az. Time Alt. Az. Time Alt. Az.
01 Aug 2.3 11:12:39 11° SSW 11:15:02 22° SSE 11:17:37 10° E visible
02 Aug 2.8 10:16:49 14° SSE 10:16:53 14° SSE 10:18:42 10° ESE visible
03 Aug 1.6 10:53:14 21° SSW 10:54:46 33° SSE 10:57:42 10° E visible
04 Aug 2.5 09:57:21 20° SE 09:57:21 20° SE 09:59:08 10° E visible
04 Aug 0.7 11:29:42 10° WSW 11:32:52 61° S 11:36:02 10° E visible
05 Aug 1.0 10:33:44 36° SSW 10:34:33 47° SSE 10:37:39 10° E visible
06 Aug 2.7 09:37:52 20° ESE 09:37:52 20° ESE 09:39:13 10° E visible
06 Aug 0.6 11:10:08 15° W 11:12:44 71° S 11:15:54 10° E visible
07 Aug 0.6 10:14:18 61° S 10:14:23 61° S 10:17:33 10° E visible
08 Aug 3.2 09:18:30 15° E 09:18:30 15° E 09:19:10 10° E visible
08 Aug 0.5 10:50:47 23° W 10:52:36 72° S 10:55:47 10° E visible
09 Aug 1.4 09:55:05 44° ESE 09:55:05 44° ESE 09:57:26 10° E visible
09 Aug 0.8 11:27:40 10° W 11:30:46 51° SSW 11:33:53 10° ESE visible
